Regional Weather Roundup
Issued by NWS San Angelo, TX

Home | Current Version | Previous Version | Text Only | Print | Product List | Glossary On
Versions: 1 2 3 4 5 6 7 8 9 10 11 12 13 14 15 16 17 18 19 20 21 22 23 24 25 26 27 28 29 30 31 32 33 34 35 36 37 38 39 40 41 42 43 44 45 46 47 48 49 50
000
ASUS44 KSJT 182210
RWRSJT
WEST CENTRAL TEXAS REGIONAL WEATHER ROUNDUP
NATIONAL WEATHER SERVICE SAN ANGELO TX
500 PM CDT THU SEP 18 2014

NOTE: "FAIR" INDICATES FEW OR NO CLOUDS BELOW 12,000 FEET WITH NO
SIGNIFICANT WEATHER AND/OR OBSTRUCTIONS TO VISIBILITY.

TXZ049-054-064>066-071>073-076>078-098-099-113-114-127-128-139-140-
154-155-168>170-182300
...LOCATIONS ACROSS WEST CENTRAL TEXAS...

CITY           SKY/WX    TMP DP  RH WIND       PRES   REMARKS
SAN ANGELO     TSTM      78  68  71 NE15      29.88R
ABILENE        LGT RAIN  69  68  96 NE12      29.92F
DYESS AFB      PTSUNNY   69  65  87 NE12      29.92S
JUNCTION       CLOUDY    92  61  35 S7        29.82S
SWEETWATER     PTSUNNY   74  69  85 NE14      29.97F
BROWNWOOD      CLOUDY    79  72  78 NE7       29.88S
COLEMAN        TSTM      76  73  91 NE9       29.90S
SONORA         MOSUNNY   88  64  45 VRB6      29.88F
OZONA          FAIR      90  61  37 S5        29.87F
BRADY          SUNNY     75  72  88 NE14      29.88S
$$

TEXAS PANHANDLE/OKLAHOMA PANHANDLE

CITY           SKY/WX    TMP DP  RH WIND       PRES   REMARKS
AMARILLO       MOSUNNY   72  61  68 SE16      30.01F
BORGER         PTSUNNY   79  61  53 S13       29.98S
CANADIAN       MOSUNNY   86  63  45 S15       29.92S
DALHART        MOSUNNY   81  60  48 SE15      30.00F
DUMAS          PTCLDY    79  62  56 S15       30.00S
GUYMON         NOT AVBL
HEREFORD       CLOUDY    71  64  79 MISG      30.02S
PAMPA          MOCLDY    77  57  50 S17       29.99F
PERRYTON       SUNNY     87  56  35 S16G25    29.93F
$$

SOUTHERN PANHANDLE/SOUTH PLAINS/ROLLING PLAINS

CITY           SKY/WX    TMP DP  RH WIND       PRES   REMARKS
LUBBOCK        CLOUDY    73  65  75 SE13      29.96F
SNYDER         PTSUNNY   70  67  92 E17       29.94S
CHILDRESS      CLOUDY    77  65  66 S6        29.94F
SEMINOLE       CLOUDY    74  65  75 E9        29.96S
$$

PERMIAN BASIN

CITY           SKY/WX    TMP DP  RH WIND       PRES   REMARKS
MIDLAND        LGT RAIN  74  70  87 NE15      29.90F FOG
ODESSA         RAIN      73  69  87 NE15      29.92F FOG
WINK           CLOUDY    77  66  68 NE14      29.87S
$$

FAR WEST/SOUTHWEST MOUNTAINS/TRANS PECOS

CITY           SKY/WX    TMP DP  RH WIND       PRES   REMARKS
ALPINE         MOCLDY    73  63  71 NE16G22   30.02R
DRYDEN           N/A     89  68  49 E14       29.81F
EL PASO        CLOUDY    71  66  84 N13       29.92F
FORT STOCKTON  CLOUDY    77  67  71 SE33G54   29.88R THUNDER HAZE
GUADALUPE PASS PTSUNNY   71  63  75 E20       30.03F
MARFA          PTSUNNY   82  63  51 SW6       29.98S
PECOS          MOCLDY    85  66  51 CALM      29.84F
$$

DALLAS/FORT WORTH METROPLEX

CITY           SKY/WX    TMP DP  RH WIND       PRES   REMARKS
DFW AIRPORT    CLOUDY    86  70  58 E10       29.84F
FTW MEACHAM    CLOUDY    86  70  58 E10       29.84F
DAL-EXECUTIVE  CLOUDY    89  70  53 E14       29.84F
GRAND PRAIRIE  MOSUNNY   88  68  51 MISG      29.85S
ADDISON        PTSUNNY   84  68  58 E10G17    29.85F
MESQUITE       MOCLDY    86  66  51 E7        29.85S
LANCASTER      CLOUDY    87  68  53 E8        29.85S
$$

NORTH CENTRAL TEXAS

CITY           SKY/WX    TMP DP  RH WIND       PRES   REMARKS
SHRMAN/DENISON CLOUDY    83  69  61 CALM      29.88S
GAINESVILLE    CLOUDY    81  68  65 E6        29.90S
BRIDGEPORT     CLOUDY    82  69  64 E3        29.88F
DENTON         CLOUDY    82  71  69 E3        29.86S
WAXAHACHIE     CLOUDY    87  67  50 E6        29.86S
GRANBURY       CLOUDY    87  69  54 E3        29.86S
$$

WESTERN NORTH TEXAS

CITY           SKY/WX    TMP DP  RH WIND       PRES   REMARKS
WICHITA FALLS  CLOUDY    79  69  71 SE7       29.88F
VERNON         CLOUDY    82  67  61 SE6       29.91F
BRECKENRIDGE   DRIZZLE   75  74  97 NW6       29.89F
COMANCHE       CLOUDY    82  71  69 NE9       29.89S
$$

CENTRAL AND SOUTH CENTRAL TEXAS

CITY           SKY/WX    TMP DP  RH WIND       PRES   REMARKS
AUSTIN/BERGSTM CLOUDY    87  71  58 E9        29.81S
WACO           LGT RAIN  80  73  79 SE7       29.85S
HILLSBORO      CLOUDY    88  68  50 E12       29.85R
TEMPLE         CLOUDY    75  70  83 E7        29.86R
KILLEEN-GRAY   TSTM      77  73  88 VRB7      29.88R
FORT HOOD      CLOUDY    77  73  88 SE7       29.88R THUNDER
GEORGETOWN     PTSUNNY   73  70  88 NE14G22   29.88R THUNDER
LAGO VISTA     CLOUDY    84  71  65 E6        29.85S
SAN MARCOS     MOSUNNY   90  70  51 E9        29.81R
NEW BRAUNFELS  SUNNY     94  66  39 SE5       29.79S
RANDOLPH AFB   PTSUNNY   94  66  39 VRB7      29.79F
SAN ANTONIO    PTSUNNY   93  67  42 SE8       29.79F
STINSON        PTSUNNY   92  68  45 SE8       29.76F
PLEASANTON     NOT AVBL
LA GRANGE      PTSUNNY   89  75  63 CALM      29.80R
GIDDINGS       MOCLDY    85  72  66 NE7       29.86R
$$

EAST TEXAS

CITY           SKY/WX    TMP DP  RH WIND       PRES   REMARKS
PARIS          PTSUNNY   84  66  54 SE7       29.87S
CLARKSVILLE    NOT AVBL
TYLER          MOSUNNY   79  69  71 SE13      29.89R
LONGVIEW       RAIN      75  72  90 SW8       29.87F FOG
PALESTINE      MOCLDY    73  70  90 SE7       29.90R
NACOGDOCHES    PTSUNNY   72  68  88 SE7       29.90R
$$

TEXAS HILL COUNTRY AND EDWARDS PLATEAU

CITY           SKY/WX    TMP DP  RH WIND       PRES   REMARKS
LLANO          CLOUDY    73  72  94 NE14G20   29.88R
HORSESHOE BAY  MOCLDY    89  67  47 SE6       29.83R
KERRVILLE      PTSUNNY   89  69  50 SE8       29.84R
FREDERICKSBRG  MOSUNNY   87  63  44 S10       29.84S
ROCKSPRINGS    CLEAR     88  64  45 SE7       29.88S
HONDO          PTSUNNY   93  65  39 SE14      29.79F
UVALDE         PTCLDY    94  68  43 S12       29.78S
DEL RIO        MOSUNNY   91  70  49 E9        29.76F
$$

SOUTHEAST TEXAS

CITY           SKY/WX    TMP DP  RH WIND       PRES   REMARKS
COLLEGE STN    CLOUDY    78  75  90 NE7       29.86R
CALDWELL       CLOUDY    79  77  94 NE7       29.88R FOG
CROCKETT       RAIN      72  72 100 S5        29.92S
BRENHAM        CLOUDY    83  76  79 E10       29.84R
HUNTSVILLE     LGT RAIN  76  73  91 E3        29.88R
CONROE         CLOUDY    75  73  93 SE5       29.87S
HOUSTON BUSH   CLOUDY    78  74  87 SE12      29.85S
HOUSTON HOBBY  PTSUNNY   78  74  87 SE7       29.85S
PERLAND        PTSUNNY   81  73  76 SE8       29.86S
WHARTON        PTCLDY    84  72  67 SE7       29.83S
$$

THE UPPER TEXAS COAST

CITY           SKY/WX    TMP DP  RH WIND       PRES   REMARKS
ORANGE         CLOUDY    74  74 100 NE6       29.90S
PORT ARTHUR    CLOUDY    78  75  90 E8        29.87S
GALVESTON      CLOUDY    76  74  93 E8        29.86F
ANGLETON       PTSUNNY   78  75  90 E8        29.85F
BAY CITY       CLOUDY    82  82  99 E9        29.84R
$$

TEXAS COASTAL BEND, RIO GRANDE PLAINS DEEP SOUTH TEXAS

CITY           SKY/WX    TMP DP  RH WIND       PRES   REMARKS
VICTORIA       MOSUNNY   82  77  84 SE14      29.81S
BEEVILLE       FAIR      90  74  59 SE12      29.78R
ROCKPORT       PTSUNNY   89  75  63 S13       29.78F
PORT ARANSAS   PTCLDY    88  76  67 SE14G20   29.79F
PORT LAVACA    RAIN      77  75  92 NW7       29.83R
CORPUS CHRISTI PTSUNNY   88  75  65 SE16G24   29.77S
KINGSVILLE NAS PTSUNNY   91  79  67 SE17      29.76S
COTULLA        PTSUNNY   95  68  41 MISG      29.75F
LAREDO         MOSUNNY   93  70  47 SE12      29.76F
BROWNSVILLE    MOSUNNY   89  76  65 S16       29.77S
PORT ISABEL    MOSUNNY   90  74  59 SE16      29.77S
HEBBRONVILLE     N/A     91  70  50 SE12      29.78S
MCALLEN        MOSUNNY   89  76  65 SE13G20   29.75F
WESLACO        MOSUNNY   91  71  52 SE12G17   29.75S
FALFURRIAS     CLOUDY   N/A N/A N/A SE9G16    29.74F
EDINBURG       MOCLDY    92  71  49 SE15      29.75S
$$



USA.gov is the U.S. government's official web portal to all federal, state and local government web resources and services.